Dewpoint
54 54 54 54 54 54 54 55 55 55 55 56 56 54 53 53 48 23 21 38 45 52 50 28 21 20 25 30 33 30 25 19 18 17 15 13 13 6 7 5 3 1 4 20 25
55 55 55 55 55 55 55 54 54 54 55 56 55 54 54 52 19 18 37 49 49 48 30 21 19 18 19 24 28 31 26 24 20 18 16 12 13 6 3 4 4 4 14 21 25
55 56 55 55 55 55 55 54 54 54 55 55 55 54 55 43 20 18 46 48 46 37 23 21 18 18 18 22 22 24 24 20 17 17 17 13 10 8 6 8 6 5 8 21 24
56 55 55 55 55 54 54 54 54 54 55 54 54 55 51 24 20 21 45 43 41 25 20 18 18 18 18 16 16 19 16 18 18 14 15 14 12 10 10 10 8 10 9 19 22
55 55 55 55 54 54 54 54 54 54 54 54 54 56 35 24 21 19 46 34 19 19 18 17 14 16 14 11 15 15 15 13 12 11 10 9 11 9 7 9 8 9 11 18 21
56 55 54 54 54 54 54 54 54 54 54 55 55 52 30 23 18 23 21 19 21 21 18 18 15 14 12 12 15 15 14 12 12 13 17 14 16 13 14 11 8 9 11 16 18
56 55 54 54 54 54 54 54 54 54 54 54 53 27 25 22 15 24 22 21 22 22 21 18 16 18 18 17 14 17 20 18 16 17 18 18 22 19 18 11 11 10 11 15 18
56 55 54 54 54 54 53 52 53 55 54 52 51 24 23 17 20 23 24 21 22 22 22 22 25 23 21 17 18 19 22 24 20 19 19 20 23 22 16 12 12 11 10 15 17
56 55 54 54 54 54 54 50 52 51 46 42 30 28 25 29 23 24 25 24 23 22 23 20 25 24 25 25 23 24 22 23 24 19 19 20 22 21 13 9 10 11 11 14 16
55 55 54 53 53 54 50 48 49 39 32 23 21 28 24 22 24 25 27 26 23 23 28 29 28 25 20 22 25 21 22 21 23 22 20 22 22 23 23 15 12 10 9 11 12
55 54 53 54 53 48 42 33 29 33 27 24 22 23 23 24 26 29 28 27 26 26 24 27 26 22 15 17 17 21 24 25 27 20 21 24 25 25 26 23 19 15 8 7 9
53 54 53 52 51 45 38 31 30 34 26 24 22 23 21 25 26 29 29 27 26 25 27 28 25 15 13 14 18 23 27 30 25 21 21 23 23 24 24 24 25 23 18 12 9
53 53 52 50 46 39 33 30 33 35 30 26 24 24 24 27 27 28 28 27 26 25 26 26 18 13 14 18 22 26 27 25 24 23 26 24 27 24 16 12 12 16 20 22 19
54 52 51 49 41 29 28 29 34 36 29 24 25 27 27 28 27 28 29 28 27 26 25 24 18 17 18 19 21 26 19 20 22 26 31 24 30 25 15 8 9 13 16 18 19
54 51 48 47 32 26 29 33 38 40 35 26 25 27 28 27 29 30 28 29 28 26 29 27 22 21 24 21 20 26 21 22 22 25 27 26 30 29 17 14 10 15 15 17 17
54 50 47 41 38 33 35 38 42 32 37 23 25 25 24 25 25 28 28 30 29 29 26 23 17 22 22 21 20 21 27 27 22 23 31 27 25 26 19 13 8 11 14 14 14
52 48 42 36 37 38 41 44 29 28 19 19 22 23 24 24 23 26 25 35 36 33 28 29 24 22 20 27 24 29 34 35 35 33 31 21 22 31 23 18 9 9 13 16 17
49 47 45 40 40 43 45 32 28 14 15 23 22 21 21 24 22 22 24 24 27 31 31 28 23 25 20 29 34 26 32 33 26 23 22 22 28 30 16 13 7 10 13 17 17
46 45 46 42 42 45 38 32 23 19 23 20 21 15 16 24 20 20 24 29 29 32 38 29 23 19 18 18 25 29 32 22 32 24 24 23 24 23 17 12 7 13 20 22 22
44 41 43 41 41 42 30 33 23 22 21 21 17 16 13 15 18 20 23 34 30 26 28 31 32 25 17 20 22 30 25 30 32 26 24 21 27 26 25 15 12 15 19 22 24
43 33 41 40 39 32 40 28 26 17 21 22 20 21 22 21 21 20 25 29 24 21 24 37 35 25 24 26 34 25 33 28 29 28 27 22 25 37 34 29 30 21 20 22 25
42 25 42 38 29 27 30 24 26 19 20 22 22 27 24 22 24 22 25 27 25 25 30 30 34 32 26 24 24 27 33 33 30 29 29 29 27 31 38 36 33 36 39 26 29
38 35 45 40 28 28 26 23 23 21 21 21 21 23 24 23 28 25 26 26 23 24 33 34 35 29 29 26 22 29 31 31 29 30 29 28 31 33 35 36 34 34 36 39 33
44 39 37 38 36 39 33 26 26 24 23 21 21 21 21 21 22 26 26 26 23 22 26 29 35 34 26 31 34 31 31 29 28 29 29 30 31 35 36 37 37 36 36 34 34
43 40 39 39 36 35 36 35 30 28 24 22 23 22 28 29 26 24 25 25 24 25 24 29 28 27 28 29 31 32 33 34 27 30 29 29 31 33 35 34 32 32 32 34 33
47 47 44 40 37 36 36 34 32 32 32 28 25 27 24 28 29 29 29 31 32 24 23 26 28 30 29 29 31 30 31 31 31 32 32 31 30 34 32 33 32 32 32 32 32
44 44 47 40 36 37 35 34 35 34 36 34 30 30 32 32 33 33 32 31 31 30 25 26 26 26 25 29 30 27 29 29 33 34 32 28 32 32 31 32 31 31 32 33 32
Lifted_Index
10 10 11 10 10 10 10 10 10 9 9 9 9 9 10 11 11 10 10 11 11 11 11 11 10 10 9 9 8 7 5 4 4 4 5 5 6 7 7 7 8 9 10 11 12
10 10 10 10 10 10 10 10 10 10 9 9 9 9 10 11 10 10 11 11 12 12 11 10 10 9 9 8 8 7 5 5 5 5 5 6 6 7 7 7 7 8 10 11 12
10 10 10 10 10 10 10 10 10 10 9 9 9 9 10 10 9 9 11 12 12 12 11 10 10 9 8 7 7 6 6 6 6 6 6 6 6 7 7 7 7 8 10 11 12
9 9 10 10 10 10 10 10 10 9 9 9 9 9 9 8 8 9 12 12 12 12 11 10 9 8 7 7 7 6 6 7 7 7 7 7 7 7 7 8 8 9 10 11 11
9 9 9 10 10 11 10 10 10 9 9 9 9 9 8 7 8 10 12 12 12 11 10 9 9 8 7 7 7 7 7 7 8 8 8 7 7 7 7 8 9 10 10 11 11
8 8 9 10 11 11 10 10 10 9 9 9 9 8 7 7 9 11 12 12 11 10 9 9 8 8 7 7 7 7 7 7 7 8 8 7 7 7 7 8 9 9 10 11 11
8 8 9 9 10 10 10 10 10 9 9 9 9 8 7 8 9 10 10 10 10 10 9 8 8 7 7 7 7 7 6 6 7 7 7 7 6 6 7 7 8 8 9 10 11
9 9 9 9 9 9 10 10 10 9 9 9 9 8 7 8 9 9 9 9 9 9 9 8 8 7 7 6 6 6 6 6 6 7 7 6 5 6 7 7 7 8 9 10 11
10 10 10 9 9 9 9 10 10 10 9 9 8 7 7 8 8 8 8 8 8 8 8 8 7 6 6 6 5 5 5 5 6 7 7 6 6 6 7 7 7 8 8 10 11
11 11 11 10 9 9 9 9 9 9 9 8 8 7 7 7 8 8 7 7 7 7 6 6 6 5 5 5 4 4 4 5 6 7 7 6 6 6 7 7 7 7 8 10 11
11 11 11 10 10 9 9 8 8 8 8 8 7 7 7 7 7 7 7 6 6 5 5 5 4 4 5 5 5 4 4 4 5 6 6 6 5 6 6 7 7 8 8 10 11
11 11 11 10 10 9 9 8 7 7 7 7 7 7 7 7 7 7 7 6 5 4 4 4 4 4 5 5 5 5 4 4 5 6 6 5 5 5 6 7 8 8 9 11 11
12 11 11 10 10 9 9 8 8 8 7 6 7 7 7 7 6 6 7 6 4 3 3 3 4 5 5 5 5 4 4 5 5 5 5 5 4 4 6 7 8 9 10 11 12
12 12 11 10 10 9 9 9 9 7 5 5 6 7 7 7 6 6 7 6 4 3 3 3 4 4 4 5 5 5 5 5 5 4 4 4 3 4 5 6 7 8 9 10 11
11 12 11 10 10 9 9 9 8 6 4 4 6 7 7 6 6 6 7 6 5 4 3 4 4 4 4 5 6 5 6 5 5 4 3 3 3 4 5 6 7 8 9 10 10
11 12 11 10 10 9 9 8 6 4 3 4 5 5 5 5 5 5 6 6 5 4 3 4 5 5 5 6 6 6 5 5 4 3 3 3 3 4 5 6 6 7 8 10 11
11 11 11 10 9 9 8 7 4 3 3 4 4 4 4 4 4 4 4 4 4 3 3 3 4 5 6 6 6 6 5 3 2 2 2 3 3 3 5 6 6 7 9 10 11
11 11 11 10 9 8 7 5 3 3 4 4 4 4 4 4 4 4 3 3 3 3 3 2 3 5 6 6 6 6 5 3 2 1 2 3 3 4 5 6 7 8 9 10 11
10 10 9 10 10 8 6 4 3 4 4 4 4 4 3 3 4 3 3 3 4 5 4 3 3 5 7 6 6 6 5 4 3 2 2 3 4 4 4 5 6 7 8 10 11
8 8 9 9 9 8 5 4 4 5 5 5 4 3 3 3 3 3 3 4 5 6 6 5 4 5 7 6 6 6 5 4 3 2 2 2 4 4 4 5 5 7 8 9 10
7 7 8 9 8 7 5 4 5 6 6 5 4 4 3 3 3 3 4 5 6 7 7 6 5 5 6 6 6 5 4 4 3 3 2 2 3 4 5 5 6 7 8 9 9
7 7 8 8 6 5 4 5 5 6 6 5 5 4 4 4 3 3 4 6 7 7 7 7 6 5 5 6 5 5 4 4 4 3 3 3 4 5 5 6 7 7 8 8 8
6 6 7 7 6 5 5 5 5 6 6 6 5 6 5 4 4 4 5 6 7 7 7 7 6 4 4 5 5 5 5 5 4 4 3 3 3 4 5 6 7 7 8 8 8
6 6 6 7 6 5 5 5 5 6 6 6 6 6 6 5 5 5 6 7 7 7 7 7 6 4 4 4 4 4 5 5 4 3 3 3 3 4 5 6 7 7 8 8 8
6 6 6 6 6 6 5 5 5 6 6 7 6 6 6 5 5 5 6 6 6 7 7 6 5 5 4 4 5 5 5 5 4 3 3 4 4 5 5 6 7 8 8 8 8
6 6 7 7 6 6 6 6 5 6 6 6 6 6 6 5 6 6 6 6 6 7 7 6 5 4 5 5 5 5 5 5 4 4 4 4 5 5 6 7 8 8 8 8 8
6 7 7 7 7 6 6 6 6 6 6 6 6 6 6 6 6 6 6 6 6 7 7 6 5 4 5 5 6 5 5 5 5 4 4 5 5 6 7 7 8 8 8 8 8